Wind_Speed
31 31 32 32 33 33 32 30 29 28 28 26 26 26 27 26 26 26 24 23 22 21 21 21 20 20 19 18 18 18 17 17 16 16 15 15 15 15 14 14 14 14 14 13 13 12 12 12 12
31 31 32 33 34 34 33 31 30 29 28 28 28 28 28 28 27 27 25 25 24 23 22 21 21 20 20 19 19 19 18 18 18 17 16 16 16 16 15 15 15 15 15 15 15 15 15 14 14
30 31 32 33 34 34 33 32 31 31 29 29 30 30 30 29 28 28 27 26 25 25 24 23 22 21 21 20 19 19 19 19 19 19 18 18 18 18 17 17 17 17 17 16 16 16 17 16 17
28 29 31 32 33 33 33 31 32 32 31 30 31 32 32 30 29 29 28 27 27 25 25 24 23 22 22 22 22 21 21 21 21 21 21 20 20 20 19 19 19 19 19 18 18 18 18 18 18
28 29 31 31 31 31 32 31 32 32 31 31 32 33 32 30 30 30 28 28 28 27 26 26 25 24 24 24 24 23 23 23 22 22 22 22 22 21 21 21 21 21 21 21 21 21 21 21 21
28 28 30 30 30 31 31 31 32 32 32 32 34 34 33 32 32 30 29 29 29 29 28 27 27 26 25 25 25 25 25 25 24 24 24 24 24 23 23 23 23 23 23 24 24 24 24 24 24
27 28 29 29 29 30 30 31 31 32 33 32 33 34 34 33 33 32 30 30 30 30 29 29 28 27 26 26 27 27 27 26 26 26 26 26 26 26 25 26 25 25 25 26 26 26 26 27 27
28 29 29 29 29 29 28 30 31 31 32 32 34 35 34 34 34 34 32 31 31 31 31 30 30 29 29 29 29 29 29 28 27 27 28 27 27 27 27 27 27 27 28 28 28 28 27 28 28
28 29 29 29 29 29 29 30 30 30 31 32 33 34 34 34 35 35 34 33 33 32 32 32 32 32 31 31 31 31 30 30 29 28 28 29 29 29 30 29 29 29 29 29 28 29 29 29 29
28 28 27 28 29 29 29 30 29 30 31 31 32 33 34 35 35 35 35 35 35 34 33 33 34 34 34 33 33 33 33 32 32 31 30 31 31 31 31 31 31 31 31 30 30 29 30 30 29
29 29 28 28 28 29 29 31 30 31 32 32 32 34 35 36 36 36 36 36 37 36 35 35 35 36 36 35 34 35 35 35 35 33 32 33 33 33 33 32 32 33 33 32 31 32 32 31 30
29 30 30 29 29 30 30 31 32 31 31 31 33 34 35 36 36 37 37 37 38 39 38 37 37 37 37 37 36 37 38 37 37 36 35 35 35 34 34 34 34 35 35 34 34 33 33 33 32
30 29 29 29 30 31 31 31 32 32 32 32 33 34 35 36 37 38 39 40 39 40 40 40 39 39 39 39 39 39 40 39 39 39 38 38 37 36 36 36 36 37 36 36 36 35 34 34 34
30 29 29 29 31 32 32 32 33 32 33 34 34 34 35 36 37 38 39 40 41 41 42 41 42 41 41 41 41 41 41 41 41 41 40 40 40 39 39 38 38 38 37 37 37 37 37 36 37
29 30 30 30 31 32 33 33 31 31 33 34 35 36 36 37 38 38 39 40 41 42 43 43 43 43 43 43 43 43 43 43 43 42 42 41 41 41 41 40 40 39 39 39 39 38 38 38 38
29 29 30 28 29 30 32 32 31 31 32 33 34 35 36 37 38 39 41 42 42 42 42 43 43 44 43 43 44 44 44 44 44 44 44 43 43 43 43 42 42 42 41 41 40 40 41 40 40
28 29 29 28 27 27 29 30 30 31 33 33 34 35 36 37 39 40 41 42 42 43 42 42 43 43 44 45 46 45 44 44 45 45 45 45 45 45 44 44 44 44 44 43 43 43 43 42 42
26 27 27 27 27 27 27 28 29 31 33 33 33 34 36 37 38 40 41 41 42 42 43 43 44 44 44 45 46 46 46 46 46 46 47 47 46 46 46 46 46 46 45 45 45 44 44 44 43
25 25 26 26 27 28 28 28 27 28 31 33 34 34 35 36 37 39 40 40 41 42 43 43 43 44 44 44 45 46 46 46 46 46 46 47 48 48 47 48 48 48 47 46 46 46 45 45 45
25 25 25 26 27 29 30 30 28 28 29 31 32 33 34 35 37 39 39 40 41 42 43 44 45 44 46 45 45 45 46 47 47 48 48 49 49 49 49 49 49 48 48 47 47 47 46 46 46
24 25 25 26 26 28 29 29 28 28 29 30 31 32 33 35 37 39 39 39 40 41 42 44 46 45 46 47 48 47 47 47 49 50 50 49 49 49 50 50 50 50 49 48 48 48 48 47 48
24 25 26 27 27 27 28 29 28 29 29 30 31 32 33 35 37 38 39 40 40 41 42 43 45 46 46 48 49 49 49 49 49 49 49 50 50 50 51 51 51 51 50 50 49 48 48 47 47
24 25 26 27 28 28 27 30 29 28 29 30 31 32 33 34 36 37 39 40 40 41 43 43 44 45 46 47 49 50 50 49 49 49 49 49 49 50 51 52 52 51 51 50 50 49 47 47 47
24 25 26 26 27 28 26 28 28 28 28 28 29 31 32 34 35 36 38 39 39 41 42 43 43 44 44 45 46 48 48 48 48 48 48 49 49 49 50 51 50 50 49 49 49 48 47 48 48
23 23 24 25 26 27 27 28 28 27 27 28 29 30 31 33 34 35 37 38 39 40 41 42 43 44 44 44 44 44 46 47 48 48 48 48 48 49 50 50 49 48 47 48 48 48 47 46 46
22 22 22 24 26 25 25 26 27 26 27 28 29 30 30 32 33 34 36 38 39 40 41 41 41 42 43 43 43 44 45 46 47 47 46 45 46 47 48 49 48 47 47 47 48 47 46 45 44
21 22 22 24 25 26 25 25 26 25 26 27 28 29 30 32 33 34 35 36 38 40 41 41 41 41 43 43 43 43 44 45 45 45 45 45 45 45 47 46 45 46 46 46 46 45 44 44 43
21 21 22 23 24 26 25 24 25 24 25 27 27 29 31 31 31 32 33 33 35 37 38 39 39 40 41 42 42 42 41 42 42 42 43 43 43 43 43 43 44 45 44 44 44 42 42 42 42
20 20 21 23 24 26 25 23 24 24 24 25 26 27 28 29 29 30 30 31 32 33 35 36 36 37 37 38 39 39 39 38 39 39 40 40 41 42 41 41 41 42 42 41 41 41 40 40 40
20 20 21 22 23 24 24 22 22 23 24 25 26 26 27 27 28 29 29 31 31 32 33 33 34 34 34 34 36 36 37 36 36 36 37 39 39 40 41 40 39 37 38 39 38 38 38 38 38
Wind_Direction
251 251 251 251 251 252 252 250 249 247 247 247 248 247 247 248 249 249 247 246 247 249 250 251 251 252 251 250 251 250 252 254 256 258 258 257 258 260 262 264 264 262 261 260 260 261 264 266 267
251 251 250 250 250 250 250 249 247 247 246 246 246 247 247 246 248 248 247 247 247 248 249 250 251 251 250 250 250 251 252 254 256 258 259 259 260 260 261 263 264 264 263 263 262 263 264 266 267
250 250 250 250 250 250 250 248 247 247 246 247 246 246 247 246 246 247 246 248 248 248 248 249 250 249 248 249 250 251 253 255 257 259 261 262 262 261 261 263 264 264 264 265 265 264 266 266 268
252 251 251 250 250 251 250 247 247 246 246 247 247 246 246 245 244 245 246 247 247 247 247 247 248 248 248 249 251 252 255 258 259 260 260 262 263 262 262 264 263 263 264 265 266 267 267 268 269
251 250 252 252 250 250 249 246 245 246 245 245 246 246 245 244 244 245 245 246 247 247 246 247 248 249 250 251 252 254 256 258 260 260 261 262 264 264 264 263 263 263 264 266 266 267 267 268 269
253 251 252 253 252 250 249 246 245 246 247 247 245 244 243 244 244 245 245 247 248 247 247 249 249 250 251 252 253 255 257 259 260 261 262 262 263 264 266 265 265 266 266 265 266 267 267 268 269
253 253 253 253 251 250 248 245 245 247 246 246 247 246 244 245 246 246 246 247 248 248 248 250 250 251 252 253 254 256 257 259 260 261 261 263 263 264 265 265 265 267 268 268 268 268 268 268 269
255 255 253 251 252 251 248 247 246 248 249 247 247 246 245 245 246 246 245 246 248 249 249 250 251 252 252 254 256 256 256 257 258 260 261 262 263 265 266 267 268 268 268 268 269 269 267 268 268
256 256 254 253 252 252 249 248 247 247 248 248 247 247 247 246 246 246 246 247 248 249 251 252 252 252 253 255 256 255 255 257 259 261 262 262 265 267 269 269 269 269 268 267 268 269 268 268 269
256 256 255 254 253 252 250 248 247 247 247 248 247 247 246 246 246 246 247 247 249 250 252 254 253 253 254 256 256 256 255 257 259 263 265 265 265 267 268 269 268 268 268 268 268 269 269 269 270
258 258 256 254 254 252 251 249 248 247 247 248 249 248 247 247 247 247 247 249 250 251 253 253 253 254 255 256 257 257 257 258 259 263 264 266 266 266 267 267 267 268 268 268 268 269 269 270 270
259 258 256 256 255 253 252 250 249 249 249 250 251 249 248 248 248 249 250 251 251 253 253 254 254 254 255 257 257 257 257 258 260 262 263 264 265 265 265 265 266 267 267 268 268 269 270 269 270
259 257 255 254 254 254 252 251 250 250 251 252 252 252 251 251 251 252 252 252 253 254 255 255 256 255 255 257 258 258 258 259 261 262 262 262 263 263 264 264 265 265 266 268 268 268 269 270 270
259 257 255 255 256 255 253 250 251 251 252 252 253 254 254 254 254 255 254 255 254 255 256 257 257 256 257 257 258 259 259 260 262 261 261 262 263 262 263 264 265 266 266 267 267 268 269 270 270
257 257 257 258 257 255 254 251 252 253 254 255 255 256 256 256 256 256 256 258 257 258 258 257 258 259 258 258 258 259 260 260 261 261 262 262 263 263 263 263 265 266 267 266 266 268 269 270 270
257 257 258 257 257 255 254 252 252 253 255 257 258 258 259 259 259 259 259 259 259 259 259 259 260 260 260 260 260 259 259 260 260 260 260 261 262 263 263 263 264 265 267 266 267 268 269 269 269
259 259 260 259 257 256 255 256 254 255 258 262 261 261 262 262 261 261 261 261 261 260 260 259 260 260 261 261 261 261 259 260 260 260 259 260 261 262 263 263 264 265 266 267 268 270 269 268 268
262 262 261 259 258 258 259 259 258 258 261 264 263 263 263 263 262 262 262 262 261 260 261 262 262 262 261 261 262 260 260 260 261 260 260 260 262 262 262 263 264 266 267 268 268 269 268 268 269
263 263 261 259 260 262 265 265 264 262 262 265 264 265 266 266 264 263 263 263 263 261 262 263 264 263 262 261 261 261 261 260 260 259 259 260 262 262 262 263 264 266 266 267 267 268 268 268 269
262 263 263 262 262 264 267 268 268 267 265 266 267 267 269 268 267 266 265 265 264 263 263 264 265 266 263 261 260 261 262 261 260 259 259 260 261 260 262 263 264 265 266 266 266 267 267 268 269
263 265 264 265 264 266 268 267 267 268 269 271 272 272 272 271 270 268 266 265 265 265 266 266 266 267 264 262 262 262 262 262 262 260 259 260 260 261 262 262 263 263 265 265 265 266 266 267 268
263 266 268 268 268 269 270 270 268 271 271 272 273 274 274 274 272 270 268 268 267 267 268 267 267 266 265 263 263 263 263 263 262 261 260 260 260 261 262 263 263 263 264 264 263 263 264 266 267
264 266 269 271 272 272 273 273 273 274 273 275 276 277 277 277 275 272 271 271 270 270 270 269 268 266 265 264 263 263 263 263 263 262 261 262 261 261 262 262 262 263 263 263 264 263 262 264 266
265 266 269 270 273 274 276 277 277 276 277 279 280 281 280 280 279 276 274 273 273 272 271 270 269 268 266 265 265 264 263 263 263 262 262 263 263 262 263 262 262 263 262 261 262 262 263 265 266
264 266 268 271 274 278 278 277 281 282 282 283 283 282 283 283 283 281 279 276 275 274 272 271 271 270 267 266 266 267 265 264 264 263 263 263 263 263 264 264 262 262 262 261 261 261 263 265 265
264 266 268 274 278 280 279 279 282 284 285 286 285 285 285 287 286 285 283 280 277 276 275 276 273 271 268 267 267 269 268 267 266 265 264 264 263 263 264 264 262 261 261 259 259 259 261 262 262
264 265 269 274 276 278 280 282 282 283 285 286 287 288 289 290 289 287 286 285 281 279 277 278 276 273 270 267 267 268 269 267 265 264 262 263 263 262 262 263 262 262 261 259 258 257 259 260 262
266 267 269 272 277 281 282 284 285 286 288 289 289 292 294 293 291 291 291 290 287 284 281 279 278 275 272 269 267 267 267 267 266 264 262 262 262 263 263 263 262 262 261 260 257 257 259 261 262
268 271 272 273 276 280 284 284 287 288 290 292 292 294 297 296 294 294 294 294 292 288 285 282 280 277 273 270 268 267 266 267 267 265 263 262 262 263 263 262 262 261 261 259 258 259 259 262 265
271 273 275 275 277 280 283 285 288 289 291 294 296 297 299 299 297 298 297 297 296 292 289 286 283 280 275 272 270 267 264 265 268 267 264 263 263 263 263 263 264 262 262 258 259 260 260 263 264
Height
5795 5797 5798 5800 5801 5801 5802 5806 5808 5810 5813 5815 5817 5818 5820 5822 5825 5828 5828 5828 5830 5832 5834 5835 5836 5837 5838 5839 5840 5841 5842 5843 5843 5844 5844 5844 5844 5845 5845 5845 5845 5846 5847 5847 5847 5847 5848 5848 5848
5788 5790 5791 5792 5793 5793 5797 5800 5802 5805 5808 5810 5811 5813 5814 5817 5819 5821 5822 5824 5826 5828 5830 5831 5832 5833 5835 5836 5837 5838 5839 5839 5840 5840 5841 5841 5841 5842 5842 5842 5842 5843 5843 5844 5844 5844 5845 5845 5845
5781 5783 5784 5784 5785 5787 5791 5794 5797 5799 5801 5804 5806 5807 5809 5812 5814 5815 5818 5819 5821 5824 5825 5827 5828 5829 5831 5832 5833 5834 5835 5836 5837 5837 5838 5838 5838 5838 5838 5839 5839 5839 5840 5840 5841 5841 5841 5842 5842
5775 5776 5777 5778 5779 5782 5784 5788 5790 5792 5795 5798 5799 5801 5803 5806 5808 5810 5813 5814 5816 5819 5821 5822 5824 5825 5827 5828 5829 5830 5831 5832 5833 5833 5834 5834 5834 5835 5835 5835 5835 5835 5836 5836 5837 5837 5837 5838 5838
5768 5769 5770 5770 5773 5776 5778 5781 5783 5785 5788 5791 5792 5795 5798 5800 5802 5805 5808 5809 5811 5813 5815 5818 5819 5821 5822 5823 5824 5826 5827 5828 5828 5829 5829 5830 5830 5830 5830 5830 5831 5831 5831 5832 5832 5832 5833 5833 5833
5762 5762 5764 5764 5767 5769 5772 5775 5777 5779 5782 5784 5786 5788 5791 5794 5796 5800 5802 5804 5806 5808 5810 5812 5814 5816 5817 5818 5820 5821 5822 5823 5823 5824 5824 5825 5825 5825 5826 5826 5826 5826 5826 5827 5827 5827 5827 5828 5828
5756 5756 5757 5759 5760 5762 5765 5768 5770 5772 5775 5777 5779 5782 5785 5788 5790 5794 5797 5799 5800 5802 5805 5806 5808 5810 5811 5813 5814 5815 5816 5817 5818 5818 5819 5819 5820 5820 5820 5820 5820 5820 5821 5821 5821 5821 5821 5821 5822
5749 5750 5751 5753 5754 5756 5759 5760 5763 5765 5768 5770 5772 5775 5779 5782 5784 5787 5790 5793 5794 5796 5799 5800 5802 5804 5805 5806 5808 5809 5810 5810 5811 5812 5812 5813 5814 5814 5814 5814 5814 5815 5815 5815 5814 5814 5814 5815 5815
5743 5745 5745 5747 5748 5750 5752 5754 5756 5758 5760 5762 5764 5767 5771 5774 5777 5780 5783 5786 5788 5790 5792 5794 5796 5798 5799 5800 5801 5801 5803 5804 5804 5805 5805 5806 5807 5808 5808 5808 5808 5808 5808 5808 5808 5808 5808 5808 5808
5737 5737 5740 5741 5742 5743 5745 5747 5750 5751 5753 5755 5758 5761 5763 5766 5770 5773 5776 5779 5781 5783 5785 5788 5789 5791 5792 5793 5794 5794 5795 5797 5797 5798 5799 5799 5800 5801 5801 5801 5800 5801 5801 5801 5801 5801 5801 5801 5801
5731 5732 5733 5734 5735 5736 5738 5740 5742 5744 5747 5750 5752 5754 5757 5759 5763 5766 5769 5771 5774 5775 5778 5780 5782 5784 5785 5785 5786 5787 5788 5789 5790 5791 5792 5792 5793 5793 5793 5793 5793 5793 5794 5793 5793 5794 5794 5794 5794
5725 5726 5726 5728 5729 5730 5732 5733 5735 5738 5741 5744 5745 5747 5749 5752 5755 5758 5761 5763 5765 5768 5770 5772 5774 5776 5777 5778 5779 5780 5781 5782 5783 5783 5784 5784 5785 5785 5785 5786 5786 5786 5786 5786 5786 5786 5786 5786 5786
5718 5719 5720 5721 5721 5723 5724 5726 5728 5732 5734 5736 5738 5739 5742 5745 5748 5750 5753 5755 5757 5759 5762 5764 5765 5767 5769 5769 5770 5771 5773 5774 5774 5775 5775 5776 5776 5777 5777 5778 5778 5778 5778 5778 5778 5778 5778 5778 5778
5711 5712 5713 5714 5715 5716 5717 5719 5722 5725 5727 5728 5730 5732 5735 5737 5740 5742 5745 5746 5749 5751 5752 5754 5756 5758 5759 5760 5761 5762 5763 5764 5765 5766 5766 5767 5767 5768 5768 5769 5769 5769 5769 5769 5769 5769 5769 5770 5770
5704 5705 5706 5707 5707 5709 5710 5713 5716 5718 5719 5721 5723 5725 5727 5729 5731 5734 5736 5738 5740 5742 5743 5745 5747 5748 5749 5751 5751 5752 5753 5754 5755 5756 5757 5757 5758 5758 5759 5759 5760 5760 5760 5760 5760 5760 5760 5761 5761
5697 5698 5700 5701 5701 5701 5704 5706 5710 5711 5712 5714 5715 5717 5719 5721 5723 5725 5726 5728 5730 5732 5733 5735 5736 5738 5739 5740 5741 5742 5743 5744 5744 5745 5746 5747 5748 5748 5749 5750 5750 5750 5750 5750 5751 5751 5751 5751 5751
5691 5692 5693 5695 5695 5696 5697 5699 5703 5704 5704 5705 5707 5708 5710 5712 5713 5715 5717 5718 5720 5722 5723 5725 5726 5727 5728 5729 5730 5731 5732 5733 5734 5735 5736 5737 5738 5738 5739 5739 5740 5740 5740 5740 5741 5741 5741 5741 5741
5686 5686 5687 5689 5689 5690 5691 5693 5695 5696 5697 5697 5699 5700 5701 5702 5704 5705 5707 5708 5710 5712 5713 5715 5716 5716 5717 5717 5719 5720 5721 5722 5723 5723 5724 5726 5726 5727 5728 5728 5729 5729 5730 5730 5730 5730 5730 5731 5731
5681 5681 5682 5684 5684 5684 5685 5686 5688 5689 5690 5690 5691 5691 5692 5693 5694 5695 5697 5698 5699 5701 5702 5704 5704 5705 5705 5706 5707 5708 5710 5711 5711 5712 5712 5714 5715 5715 5716 5717 5718 5718 5719 5719 5719 5720 5720 5721 5721
5676 5676 5677 5678 5678 5678 5679 5680 5681 5682 5683 5683 5683 5683 5684 5684 5684 5685 5687 5688 5688 5690 5691 5692 5693 5693 5693 5694 5695 5696 5698 5699 5700 5701 5701 5702 5703 5704 5705 5705 5706 5707 5707 5707 5708 5709 5710 5710 5711
5671 5671 5672 5672 5672 5672 5672 5674 5675 5676 5675 5675 5675 5675 5675 5675 5675 5676 5676 5677 5677 5678 5679 5680 5681 5681 5681 5682 5683 5684 5685 5686 5687 5688 5689 5690 5691 5692 5693 5694 5694 5695 5695 5696 5697 5697 5698 5699 5700
5666 5666 5666 5666 5666 5666 5667 5666 5669 5668 5668 5668 5667 5666 5666 5665 5666 5666 5666 5666 5666 5667 5668 5668 5668 5669 5669 5669 5670 5671 5673 5674 5675 5676 5677 5678 5678 5679 5680 5680 5681 5682 5683 5684 5685 5685 5686 5687 5688
5660 5661 5661 5661 5660 5660 5661 5659 5661 5660 5660 5660 5660 5659 5658 5657 5656 5656 5656 5656 5656 5656 5656 5656 5656 5656 5656 5656 5657 5658 5659 5661 5662 5663 5664 5665 5666 5666 5667 5667 5668 5669 5670 5671 5672 5673 5674 5675 5676
5654 5655 5655 5655 5654 5654 5655 5653 5654 5653 5654 5653 5652 5651 5649 5648 5647 5647 5646 5646 5645 5645 5644 5644 5644 5644 5643 5643 5644 5644 5646 5647 5649 5650 5651 5652 5653 5653 5653 5654 5655 5656 5657 5658 5660 5661 5662 5663 5664
5649 5650 5649 5648 5647 5648 5649 5647 5647 5647 5646 5645 5644 5643 5641 5640 5639 5638 5637 5636 5635 5634 5632 5631 5631 5631 5630 5630 5631 5632 5633 5634 5635 5636 5638 5639 5640 5640 5641 5641 5642 5643 5644 5646 5648 5649 5651 5652 5653
5643 5644 5644 5643 5642 5642 5642 5641 5642 5641 5640 5638 5637 5635 5633 5632 5630 5629 5627 5625 5624 5623 5621 5619 5618 5618 5618 5618 5619 5620 5620 5621 5622 5623 5625 5626 5627 5628 5628 5629 5630 5631 5632 5634 5636 5638 5640 5641 5642
5637 5638 5638 5637 5636 5636 5636 5635 5635 5634 5633 5632 5630 5628 5626 5624 5622 5619 5617 5614 5612 5611 5609 5607 5606 5606 5605 5606 5607 5608 5608 5608 5610 5611 5612 5613 5614 5616 5616 5617 5618 5619 5621 5622 5624 5627 5628 5630 5631
5633 5632 5633 5631 5630 5629 5630 5630 5629 5628 5626 5625 5623 5621 5618 5616 5613 5610 5607 5604 5602 5600 5598 5596 5595 5594 5594 5594 5595 5596 5596 5597 5598 5599 5600 5602 5603 5604 5605 5606 5608 5609 5610 5611 5613 5616 5618 5619 5621
5628 5628 5626 5626 5625 5624 5624 5626 5623 5621 5620 5618 5616 5614 5611 5608 5605 5602 5599 5596 5593 5590 5588 5586 5584 5583 5583 5583 5584 5585 5586 5587 5588 5589 5590 5591 5592 5593 5594 5596 5597 5598 5599 5601 5603 5605 5607 5609 5611
5621 5622 5621 5621 5620 5619 5618 5622 5618 5616 5614 5612 5609 5607 5604 5601 5598 5595 5591 5588 5584 5581 5578 5576 5575 5574 5573 5573 5574 5575 5576 5577 5578 5579 5580 5581 5582 5583 5585 5586 5587 5588 5589 5591 5594 5596 5598 5600 5601